Location: Unspecified
(40.7945°N, 111.1337°W)
Time: 17:54:22
(UTC-06:00)

Okean 3 - Pass Details

Date: 29 March 2019
Orbit: 576 x 602 km, 82.5° (Epoch: 21 April)

Event Time Altitude Azimuth Distance (km) Brightness Sun altitude
Exits shadow 06:29:29 12° 251° (WSW) 1,842 5.3 -9.0°
Maximum altitude 06:31:56 17° 288° (WNW) 1,529 5.1 -8.6°
Drops below altitude 10° 06:34:48 10° 330° (NNW) 1,948 5.9 -8.0°
Sets 06:37:42 0° 351° (N) 2,854 7.0 -7.5°
